# Land Stadt Wetter Temperatur Luftdruck Luftfeuchtigkeit Sichtweite Windgeschwindigkeit Windrichtung Ortszeit
1 ar Esquel Clouds -4 1025 92 0 4 324 02.08.2018 14:22
2 bo La Paz Clear 0 1040 75 10000 4 0 02.08.2018 14:22
3 ar Ushuaia Clouds 0 1015 90 10000 9 320 02.08.2018 14:22
4 bo Potisi Clear 2 1021 74 0 6 354 02.08.2018 14:22
5 gl Nuuk Clouds 4 1012 93 0 4 320 02.08.2018 14:22
6 ar Buenos Aires Clear 5 1024 41 10000 5 260 02.08.2018 14:22
7 uy Montevideo Clear 6 1022 52 10000 21 240 02.08.2018 14:22
8 ru Amderma Clouds 7 1013 76 0 37 271 02.08.2018 14:23
9 pe Cusco Clear 8 1022 69 0 3 327 02.08.2018 14:23
10 cl Santiago Clear 8 1019 87 6000 2 0 02.08.2018 14:23
11 ch Andermatt Clouds 9 1019 87 0 2 272 02.08.2018 14:23
12 nz Wellington Clouds 9 1022 81 10000 5 240 02.08.2018 14:23
13 ru Anadyr Rain 10 1002 93 10000 18 110 02.08.2018 14:23
14 no Hammerfest Clear 10 1018 76 10000 15 80 02.08.2018 14:22
15 za Kapstadt Rain 10 1023 61 10000 8 230 02.08.2018 14:22
16 is Reykjavik Clouds 11 1009 81 10000 17 100 02.08.2018 14:22
17 fi Rovaniemi Rain 11 1012 93 10000 17 50 02.08.2018 14:21
18 ad Andorra la Vella Clouds 11 1016 79 0 7 21 02.08.2018 14:22
19 ie Dublin Clouds 11 1020 87 10000 18 280 02.08.2018 14:21
20 gb Glasgow Clouds 12 1016 81 10000 15 240 02.08.2018 14:21
21 de Oberstdorf Clouds 12 1018 90 0 2 210 02.08.2018 14:21
22 us Nome Clear 12 1010 71 16093 24 250 02.08.2018 14:23
23 mg Antananarivo Mist 12 1022 100 1200 4 0 02.08.2018 14:21
24 de Trier Clear 13 1017 71 10000 3 11 02.08.2018 14:21
25 de München Clouds 13 1018 92 0 3 94 02.08.2018 14:21
26 fi Helsinki Clear 13 1015 76 10000 9 250 02.08.2018 14:21
27 gb Manchester Clouds 13 1018 82 10000 9 290 02.08.2018 14:21
28 no Oslo Rain 13 989 93 0 5 224 02.08.2018 14:23
29 at Innsbruck Clouds 13 1019 82 10000 4 250 02.08.2018 14:23
30 de Flensburg Rain 13 1014 82 10000 11 220 02.08.2018 14:21
31 de Bremen Clouds 14 1015 87 10000 4 0 02.08.2018 14:22
32 de Emden Rain 14 1014 91 0 3 141 02.08.2018 14:21
33 ch Bern Clouds 14 1018 87 10000 2 0 02.08.2018 14:23
34 de Kassel Clouds 14 1016 81 10000 4 260 02.08.2018 14:21
35 de Stuttgart Clouds 15 1017 67 10000 5 173 02.08.2018 14:22
36 se Stockholm Clouds 15 1014 87 10000 5 0 02.08.2018 14:23
37 de Braunschweig Clouds 15 1016 72 10000 2 0 02.08.2018 14:21
38 et Addis Abeba Rain 15 1015 73 0 2 246 02.08.2018 14:23
39 au Sydney Rain 15 1016 72 10000 50 190 02.08.2018 14:22
40 de Helgoland Clouds 15 1015 77 10000 9 250 02.08.2018 14:22
41 ke Nairobi Clouds 15 1021 87 10000 7 38 02.08.2018 14:22
42 de Nürnberg Clouds 15 1018 67 10000 5 110 02.08.2018 14:21
43 de Hannover Clouds 15 1015 87 10000 4 0 02.08.2018 14:21
44 ua Kiew Clear 15 1012 67 10000 22 330 02.08.2018 14:21
45 at Wien Clouds 15 1019 76 10000 4 0 02.08.2018 14:22
46 bg Sofia Clouds 15 1018 72 10000 9 110 02.08.2018 14:21
47 fr Paris Clouds 16 1018 63 10000 5 0 02.08.2018 14:22
48 de Hamburg Clouds 16 1015 72 10000 8 150 02.08.2018 14:21
49 de Torfhaus Clouds 16 1016 75 0 5 37 02.08.2018 14:22
50 us Fairbanks Clouds 16 1011 55 16093 9 210 02.08.2018 14:23
51 de Köln Clouds 16 1017 82 10000 2 0 02.08.2018 14:21
52 de Freiburg Clouds 16 1014 61 0 2 250 02.08.2018 14:22
53 de Hiddensee Clouds 16 1020 79 0 3 157 02.08.2018 14:21
54 gb London Clouds 16 1016 88 10000 9 300 02.08.2018 14:22
55 ru Moskau Rain 17 1010 87 10000 18 330 02.08.2018 14:22
56 de Magdeburg Clear 17 1009 73 0 8 162 02.08.2018 14:22
57 ru Surgut Clouds 17 1020 55 10000 18 300 02.08.2018 14:23
58 bg Warna Clear 17 1016 55 10000 22 360 02.08.2018 14:21
59 de Frankfurt Clouds 17 1016 59 10000 9 70 02.08.2018 14:22
60 de Dresden Clouds 17 1018 55 10000 15 150 02.08.2018 14:22
61 de Berlin Clear 17 1016 59 10000 5 150 02.08.2018 14:21
62 au Perth Clouds 17 1014 48 10000 28 270 02.08.2018 14:21
63 fr Bordeaux Clouds 17 1020 93 10000 5 260 02.08.2018 14:21
64 mx Mexiko Stadt Clouds 18 1029 59 16093 22 290 02.08.2018 14:21
65 au Alice Springs Clear 18 1021 27 10000 18 80 02.08.2018 14:21
66 ma Casablanca Clouds 19 1013 100 5000 2 0 02.08.2018 14:23
67 us Los Angeles Clear 19 1014 77 14484 5 260 02.08.2018 14:22
68 ec San Cristobal Clear 20 1014 91 0 17 173 02.08.2018 14:22
69 us Denver Clouds 20 1017 63 16093 18 210 02.08.2018 14:21
70 it Rom Clouds 20 1012 48 10000 9 50 02.08.2018 14:23
71 br Rio de Janeiro Clouds 20 1014 88 10000 8 200 02.08.2018 14:22
72 mn Uliastai Clear 20 1003 30 0 29 238 02.08.2018 14:23
73 ck Avarua Clouds 20 1015 60 10000 13 130 02.08.2018 14:22
74 es Madrid Clouds 20 1019 42 10000 8 360 02.08.2018 14:23
75 it Mailand Clouds 20 1017 64 10000 8 50 02.08.2018 14:21
76 es Palma de Mallorca Clouds 21 1017 73 10000 8 360 02.08.2018 14:22
77 es Las Palmas de Gran Canaria Clouds 21 1014 73 10000 39 360 02.08.2018 14:21
78 ca Montreal Clear 21 1011 93 14484 9 20 02.08.2018 14:22
79 tr Ankara Clouds 21 1015 49 10000 2 0 02.08.2018 14:23
80 pt Lissabon Clear 21 1015 68 10000 22 310 02.08.2018 14:22
81 es Barcelona Clouds 22 1016 78 10000 21 320 02.08.2018 14:22
82 kr Seoul Clouds 22 1003 68 10000 9 60 02.08.2018 14:21
83 tr Istanbul Clouds 22 1015 49 10000 21 50 02.08.2018 14:23
84 fr Nizza Clouds 22 1015 73 10000 9 340 02.08.2018 14:22
85 cn Lhasa Clouds 22 1005 34 0 7 182 02.08.2018 14:22
86 us Chicago Clear 22 1015 60 16093 8 160 02.08.2018 14:23
87 ma Marrakesch Clear 22 1014 73 8000 5 270 02.08.2018 14:23
88 cd Kisangani Clouds 23 1012 92 0 3 276 02.08.2018 14:23
89 af Kabul Clear 23 1017 49 10000 11 360 02.08.2018 14:21
90 ru Werchojansk Clouds 23 1004 41 0 30 338 02.08.2018 14:22
91 gr Athen Clouds 24 1012 50 10000 15 350 02.08.2018 14:22
92 jp Nagasaki Rain 24 1003 78 10000 11 290 02.08.2018 14:21
93 es Tarifa Clear 24 1015 69 10000 15 130 02.08.2018 14:21
94 us New York Clear 24 1012 57 16093 14 322 02.08.2018 14:22
95 br Manaus Clouds 24 1014 88 10000 4 170 02.08.2018 14:21
96 jp Tokio Clouds 24 1000 88 6000 8 330 02.08.2018 14:22
97 es Sevilla Clear 24 1014 78 10000 4 80 02.08.2018 14:22
98 fj Suva Clouds 25 1013 78 10000 15 130 02.08.2018 14:21
99 eg Kairo Clouds 25 1006 78 10000 11 30 02.08.2018 14:22
100 tr Alanya Dust 25 1009 61 4000 14 314 02.08.2018 14:22
101 mx Veracruz Rain 26 1013 76 0 2 200 02.08.2018 14:21
102 us Honolulu Clouds 26 1015 57 16093 30 80 02.08.2018 14:22
103 do Santo Domingo Clouds 26 1016 88 10000 8 40 02.08.2018 14:21
104 in Jagatsukh Clear 26 1008 39 0 12 203 02.08.2018 14:22
105 it Palermo Clear 26 996 75 0 6 306 02.08.2018 14:22
106 us Miami Clouds 27 1016 79 16093 5 230 02.08.2018 14:23
107 us Death Valley Clear 27 1002 10 0 3 136 02.08.2018 14:22
108 in Mumbai Rain 27 1005 100 2000 9 170 02.08.2018 14:22
109 cn Shanghai Clouds 27 1007 78 10000 11 10 02.08.2018 14:21
110 ru Jakutsk Clear 28 1004 28 10000 22 300 02.08.2018 14:22
111 mn Ulaanbaatar Clouds 28 1010 39 10000 18 160 02.08.2018 14:23
112 sb Honiara Clouds 28 1008 78 10000 18 70 02.08.2018 14:22
113 bs Nassau Clouds 28 1017 83 10000 8 190 02.08.2018 14:22
114 in Nagpur Haze 29 1005 83 4000 4 260 02.08.2018 14:21
115 id Jakarta Rain 29 1008 78 2000 26 160 02.08.2018 14:22
116 pg Port Moresby Haze 30 1007 74 10000 33 160 02.08.2018 14:21
117 au Darwin Clear 31 1011 15 10000 11 40 02.08.2018 14:22
118 mv Male Clouds 31 1008 89 10000 11 360 02.08.2018 14:23
119 th Bangkok Clouds 33 1007 50 0 8 228 02.08.2018 14:21
120 ph Manila Clouds 33 1008 59 10000 15 270 02.08.2018 14:21
121 us Tucson Clouds 34 1014 26 16093 9 290 02.08.2018 14:21
122 vn Hanoi Clouds 34 1006 56 10000 8 290 02.08.2018 14:21
123 iq Bagdad Clear 35 1000 32 10000 4 0 02.08.2018 14:22
124 cn Peking Clear 36 999 42 0 8 184 02.08.2018 14:23
125 us Las Vegas Clear 36 1007 12 16093 21 240 02.08.2018 14:21
126 ae Dubai Clear 37 998 47 10000 17 150 02.08.2018 14:21
127 sa Riad Clouds 38 1005 14 10000 9 240 02.08.2018 14:21
128 qa Doha Clouds 39 998 26 10000 8 30 02.08.2018 14:23